This demonstration page uses our WeatherBlox Daily Observations layout. Learn more.

Left ArrowRight Arrow

38.88101, -77.10428

Hourly Observations for November 9, 2018

Temp ( °F °C ) Dew Point ( °F °C ) Humidity (%) Winds ( mph kmh ) Pressure ( in mb ) Visibility ( mi km ) Precip ( " mm )
12:52 am 00:52 Cloudy 50 10 36 2.2 59 59 NE 7 11 30.3 1026 10 16.0934 0 0
1:52 am 01:52 Cloudy 50 10 37 2.8 61 61 NE 12 19 30.31 1026 10 16.0934 0 0
2:52 am 02:52 Cloudy 50 10 37 2.8 61 61 NE 10 17 30.31 1026 10 16.0934 0 0
3:52 am 03:52 Cloudy 49 9.4 36 2.2 61 61 ENE 12 19 30.29 1026 10 16.0934 0 0.0254
4:52 am 04:52 Cloudy with Light Rain 48 8.9 37 2.8 66 66 ENE 10 17 30.29 1026 10 16.0934 0.02 0.508
5:52 am 05:52 Cloudy 47 8.3 38 3.3 71 71 ENE 10 17 30.28 1025 10 16.0934 0 0.0254
6:52 am 06:52 Cloudy with Light Rain 46 7.8 38 3.3 73 73 ENE 8 13 30.25 1025 10 16.0934 0.01 0.254
7:52 am 07:52 Cloudy 46 7.8 39 3.9 77 77 NE 9 15 30.25 1024 10 16.0934 0.01 0.254
8:52 am 08:52 Cloudy with Light Rain 46 7.8 40 4.4 79 79 NE 8 13 30.23 1024 10 16.0934 0 0.0254
9:52 am 09:52 Cloudy 49 9.4 42 5.6 77 77 E 5 7 30.19 1023 10 16.0934 0 0.0254
10:35 am 10:35 Cloudy 50 10 43 6.1 77 77 ESE 5 7 30.15 1021 10 16.0934 0 0.0254
10:52 am 10:52 Cloudy 50 10 44 6.7 80 80 ESE 5 7 30.14 1021 10 16.0934 0 0.0254
11:21 am 11:21 Cloudy with Light Rain 51 10.6 45 7.2 80 80 Calm 30.12 1020 6 9.65604 0.01 0.254
11:39 am 11:39 Cloudy with Light Rain 51 10.6 45 7.2 80 80 NE 3 6 30.12 1020 7 11.26538 0.01 0.254
11:52 am 11:52 Cloudy with Light Rain 51 10.6 46 7.8 83 83 N 3 6 30.1 1019 7 11.26538 0.01 0.254
11:59 am 11:59 Cloudy with Light Rain 51 10.6 46 7.8 83 83 NNE 5 7 30.09 1019 7 11.26538 0 0.0254
12:32 pm 12:32 Cloudy 51 10.6 47 8.3 86 86 Calm 30.06 1018 8 12.87472 0.01 0.254
12:34 pm 12:34 Cloudy with Heavy Rain 51 10.6 47 8.3 86 86 Calm 30.06 1018 1.5 2.41401 0.01 0.254
12:47 pm 12:47 Cloudy with Light Rain 52 11 46 8 82 82 N 5 7 30.06 1018 3 4.82802 0.07 1.778
12:52 pm 12:52 Cloudy with Light Rain 51 10.6 47 8.3 86 86 N 5 7 30.04 1017 3 4.82802 0.07 1.778
1:21 pm 13:21 Cloudy with Light Rain 52 11.1 48 8.9 86 86 NNE 6 9 30.03 1017 5 8.0467 0 0.0254
1:27 pm 13:27 Cloudy with Rain 52 11.1 48 8.9 86 86 N 6 9 30 1016 1 1.60934 0 0.0254
1:38 pm 13:38 Cloudy with Rain 52 11.1 49 9.4 89 89 NW 3 6 30.03 1017 2 3.21868 0.05 1.27
1:45 pm 13:45 Cloudy with Light Rain 52 11.1 49 9.4 89 89 NW 3 6 30.03 1017 3 4.82802 0.06 1.524
1:52 pm 13:52 Cloudy with Light Rain 52 11.1 49 9.4 89 89 N 3 6 30.03 1017 2 3.21868 0.07 1.778
2:16 pm 14:16 Cloudy with Rain 52 11.1 49 9.4 89 89 NNW 7 11 30.03 1017 1.5 2.41401 0.02 0.508
2:30 pm 14:30 Cloudy with Heavy Rain 51 10.6 49 9.4 92 92 NNW 7 11 30.03 1017 1.5 2.41401 0.11 2.794
2:52 pm 14:52 Cloudy with Rain 51 10.6 48 8.9 89 89 NW 9 15 30.01 1016 2 3.21868 0.22 5.588
3:16 pm 15:16 Cloudy with Rain 51 10.6 48 8.9 89 89 N 9 15 30 1016 2.5 4.02335 0.06 1.524
3:23 pm 15:23 Cloudy with Rain 51 10.6 48 8.9 89 89 N 9 15 29.97 1015 4 6.43736 0.07 1.778
3:28 pm 15:28 Cloudy with Light Rain 52 11.1 49 9.4 89 89 N 7 11 29.97 1015 5 8.0467 0.08 2.032
3:41 pm 15:41 Cloudy with Light Rain 52 11.1 49 9.4 89 89 N 8 13 29.97 1015 9 14.48406 0.08 2.032
3:52 pm 15:52 Cloudy with Light Rain 52 11.1 49 9.4 89 89 N 8 13 29.97 1015 10 16.0934 0.08 2.032
4:44 pm 16:44 Cloudy with Light Rain 51 10.6 48 8.9 89 89 N 10 17 29.94 1014 4 6.43736 0.01 0.254
4:52 pm 16:52 Cloudy with Light Rain 51 10.6 48 8.9 89 89 NNW 12 19 29.94 1014 5 8.0467 0.01 0.254
5:52 pm 17:52 Cloudy with Light Rain 50 10 47 8.3 89 89 NW 9 15 29.92 1013 4 6.43736 0.03 0.762
6:47 pm 18:47 Cloudy 50 10 46 8 88 88 NNW 6 9 29.91 1013 7 11.26538 0.01 0.254
6:53 pm 18:53 Cloudy with Drizzle 49 9.4 46 7.8 90 90 NNW 6 9 29.91 1013 6 9.65604 0 0.0254
7:30 pm 19:30 Cloudy 49 9.4 46 7.8 90 90 NW 6 9 29.91 1013 10 16.0934 0 0.0254
7:47 pm 19:47 Cloudy 48 9 46 8 94 94 WNW 5 7 29.91 1013 10 16.0934 0 0.0254
7:52 pm 19:52 Cloudy 49 9.4 46 7.8 90 90 WNW 6 9 29.91 1013 10 16.0934 0 0.0254
8:02 pm 20:02 Cloudy 49 9.4 46 7.8 90 90 W 7 11 29.91 1013 10 16.0934 0 0
8:52 pm 20:52 Cloudy 49 9.4 46 7.8 90 90 NNW 7 11 29.89 1012 10 16.0934 0 0
9:33 pm 21:33 Cloudy 49 9.4 45 7.2 86 86 NNW 8 13 29.91 1013 10 16.0934 0 0
9:46 pm 21:46 Cloudy 48 9 45 7 87 87 WNW 8 13 29.91 1013 10 16.0934 0 0
9:52 pm 21:52 Cloudy 49 9.4 45 7.2 86 86 W 6 9 29.91 1013 10 16.0934 0 0
9:59 pm 21:59 Cloudy 49 9.4 45 7.2 86 86 WNW 6 9 29.91 1013 10 16.0934 0 0
10:06 pm 22:06 Cloudy 49 9.4 46 7.8 90 90 W 7 11 29.91 1013 10 16.0934 0 0
10:14 pm 22:14 Cloudy 49 9.4 45 7.2 86 86 WNW 9 15 29.91 1013 10 16.0934 0 0
10:52 pm 22:52 Cloudy 49 9.4 45 7.2 86 86 W 7 11 29.92 1013 10 16.0934 0 0
11:25 pm 23:25 Cloudy 49 9.4 44 6.7 83 83 WNW 7 11 29.94 1014 10 16.0934 0 0
11:52 pm 23:52 Cloudy 49 9.4 44 6.7 83 83 VRB 7 11 29.93 1013 10 16.0934 0 0

Powered by AerisWeather